Location: Unspecified
(42.7170°S, 0.0000°E)
Time: 10:38:40
(UTC+00:00)

N. Korean satellite - Pass Details

Date: 22 May 2019
Orbit: 455 x 510 km, 97.2° (Epoch: 17 June)

Event Time Altitude Azimuth Distance (km) Brightness Sun altitude
Exits shadow 19:10:59 - 199° (SSW) 1,928 9.8 -27.1°
Reaches altitude 10° 19:11:41 10° 206° (SSW) 1,722 9.6 -27.3°
Maximum altitude 19:14:07 17° 247° (WSW) 1,345 9.5 -27.7°
Drops below altitude 10° 19:16:33 10° 288° (WNW) 1,724 10.2 -28.2°
Sets 19:19:11 0° 308° (NW) 2,608 11.0 -28.6°
